Location: Byszew
(52.1813°N, 19.2693°E)
Time: 19:07:54
(UTC+00:00)

USA 245 - Pass Details

Date: 03 March 2021
Orbit: 267 x 987 km, 97.9° (Epoch: 16 April)

Event Time Altitude Azimuth Distance (km) Brightness Sun altitude
Exits shadow 19:25:51 70° 54° (NE) 963 4.3 -27.6°
Drops below altitude 10° 19:31:49 10° 349° (N) 2,729 7.3 -28.4°
Sets 19:34:26 0° 348° (NNW) 3,712 8.1 -28.7°
